Location: Mahannah Oil Field
(37.4664°N, 96.6003°W)
Time: 01:11:30
(UTC+00:00)

A-11 Canister half - Pass Details

Date: 24 January 2021
Orbit: 1524 x 1684 km, 47.3° (Epoch: 25 February)

Event Time Altitude Azimuth Distance (km) Brightness Sun altitude
Rises 02:54:41 0° 301° (WNW) 4,767 12.3 -38.3°
Reaches altitude 10° 02:57:44 10° 302° (WNW) 3,802 11.6 -38.9°
Enters shadow 03:06:10 72° 302° (WNW) 1,697 9.1 -40.6°
Maximum altitude 03:07:29 89° 213° (SSW) 1,635 - -40.8°
Drops below altitude 10° 03:17:33 10° 125° (SE) 3,912 - -42.8°
Sets 03:20:43 0° 126° (SE) 4,911 - -43.4°
